Location: Oberstdorf
(47.4188°N, 10.2969°E)
Time: 04:00:01
(UTC+01:00)

ISS - Pass Details

Date: 12 February 2018
Orbit: 402 x 407 km, 51.6° (Epoch: 23 February)

Event Time Altitude Azimuth Distance (km) Brightness Sun altitude
Rises 18:32:27 0° 290° (WNW) 2,320 1.2 -9.8°
Reaches altitude 10° 18:34:42 10° 279° (W) 1,458 0.3 -10.2°
Maximum altitude 18:37:34 28° 218° (SW) 782 -1.9 -10.7°
Drops below altitude 10° 18:40:25 10° 156° (SSE) 1,452 -1.2 -11.2°
Enters shadow 18:42:32 - 145° (SE) 2,267 -0.3 -11.5°
